#timestamp,LO_Frequency,Hit 
1502766015.7,286047002.1,N
1502766035.5,286047002.0,N
1502766055.3,286047002.0,N
1502766075.1,286047005.9,N
1502766095.9,286047007.1,N
1502766115.7,286047005.2,N
1502766135.5,286047005.1,N
1502766155.4,286047004.6,N
1502766175.2,286047005.5,N
1502766195.0,286047005.6,N
1502766195.9,286047005.6,N
1502766215.8,286047005.3,N
1502766235.6,286047003.3,N
1502766255.4,286047002.9,N
1502766275.3,286047005.8,N
1502766295.1,286047007.5,N
1502766296.0,286047007.5,N
1502766315.8,286047005.1,N
1502766335.7,286047005.0,N
1502766355.5,286047003.7,N
1502766375.3,286047002.9,N
1502766395.1,286047004.2,N
1502766415.9,286047006.9,N
1502766435.7,286047007.9,N
1502766455.5,286047009.6,Y
1502766475.4,286047005.5,N
1502766495.2,286047001.4,N
1502766515.0,286047003.9,N
1502766515.9,286047003.9,N
1502766535.8,286047003.7,N
1502766555.6,286047002.6,N
1502766575.4,286047000.8,N
1502766595.3,286047001.2,N
1502766615.1,286047001.1,N
1502766616.0,286047001.1,N
1502766635.8,286047000.5,N
1502766655.7,286047001.2,N
1502766675.5,286046999.8,N
1502766695.3,286047000.4,N
1502766715.1,286047000.6,N
1502766735.9,286047004.0,N
1502766755.7,286047003.9,N
1502766775.5,286047003.1,N
1502766795.4,286047003.3,N
1502766815.2,286047006.5,N
1502766835.0,286047005.4,N
1502766835.9,286047005.4,N
1502766855.8,286047006.5,N
1502766875.6,286047005.6,N
1502766895.4,286047003.6,N
1502766915.3,286047006.7,N
1502766935.1,286047006.1,N
1502766936.0,286047006.1,N
1502766955.8,286047006.7,N
1502766975.6,286047006.8,N
1502766995.5,286047006.8,N
1502767015.3,286047004.8,N
1502767035.1,286047005.4,N
1502767055.9,286047006.4,N
1502767075.7,286047005.8,N
1502767095.5,286047008.8,N
1502767115.4,286047009.5,Y
1502767135.2,286047005.8,N
1502767155.0,286047005.2,N
1502767155.9,286047005.2,N
1502767175.8,286047006.8,N
1502767195.6,286047005.1,N
1502767215.4,286047003.7,N
1502767235.3,286047005.2,N
1502767255.1,286047005.7,N
1502767256.0,286047005.7,N
1502767275.8,286047005.6,N
1502767295.6,286047005.3,N
1502767315.5,286047005.3,N
1502767335.3,286047003.6,N
1502767355.1,286047000.0,N
1502767375.9,286047000.6,N
1502767395.7,286047004.3,N
1502767415.5,286047004.4,N
1502767435.4,286047003.2,N
1502767455.2,286047003.1,N
1502767475.0,286047001.4,N
1502767475.9,286047001.4,N
1502767495.8,286046999.7,N
1502767515.6,286047001.5,N
1502767535.4,286047000.6,N
1502767555.2,286047002.5,N
1502767575.1,286047001.6,N
1502767576.0,286047001.6,N
1502767595.8,286047000.9,N
1502767615.6,286047000.9,N
1502767635.5,286047001.4,N
1502767655.3,286047004.4,N
1502767675.1,286047004.4,N
1502767695.9,286047004.4,N
1502767715.7,286047006.7,N
1502767735.5,286047004.8,N
1502767755.4,286047005.0,N
1502767775.2,286047004.8,N
1502767795.0,286047006.0,N
1502767795.9,286047006.0,N
1502767815.7,286047004.7,N
1502767835.6,286047006.6,N
1502767855.4,286047006.9,N
1502767875.2,286047006.4,N
1502767895.1,286047007.3,N
1502767896.0,286047007.3,N
1502767915.8,286047005.1,N
1502767935.6,286047006.2,N
1502767955.5,286047009.1,Y
1502767975.3,286047005.2,N
1502767995.1,286047005.6,N
1502768015.9,286047003.9,N
1502768035.7,286047002.6,N
1502768055.5,286046999.8,N
1502768075.4,286046999.9,N
1502768095.2,286046999.9,N
1502768115.0,286047000.1,N
1502768115.9,286047000.1,N
1502768135.7,286047000.1,N
1502768155.6,286047001.4,N
1502768175.4,286047001.9,N
1502768195.2,286046999.7,N
1502768215.1,286047004.3,N
1502768216.0,286047004.3,N
1502768235.8,286047009.0,Y
1502768255.6,286047001.8,N
1502768275.5,286047000.8,N
1502768295.3,286047001.6,N
1502768315.1,286047001.4,N
1502768335.9,286047002.7,N
1502768355.7,286047001.2,N
1502768375.5,286046998.1,N
1502768395.4,286046998.6,N
1502768415.2,286046998.2,N
1502768435.0,286047004.4,N
1502768435.9,286047004.4,N
1502768455.7,286047006.6,N
1502768475.6,286047007.2,N
1502768495.4,286047002.9,N
1502768515.2,286047002.9,N
1502768535.1,286047005.8,N
1502768536.0,286047005.8,N
1502768555.8,286047003.8,N
1502768575.6,286047003.5,N
1502768595.5,286047004.3,N
1502768615.3,286047002.4,N
1502768635.1,286047002.6,N
1502768655.9,286047002.7,N
1502768675.7,286047003.5,N
1502768695.5,286047004.3,N
1502768715.3,286047004.1,N
1502768735.2,286047004.2,N
1502768755.0,286047003.6,N
1502768755.9,286047003.6,N
1502768775.7,286047003.7,N
1502768795.6,286047005.7,N
1502768815.4,286047005.8,N
1502768835.2,286047003.6,N
1502768855.1,286047005.9,N
1502768856.0,286047005.9,N
1502768875.8,286047007.5,Y
1502768895.6,286047002.4,N
1502768915.5,286047000.9,N
1502768935.3,286047000.8,N
1502768955.1,286046999.8,N
1502768975.9,286047004.0,N
1502768995.7,286047003.2,N
1502769015.5,286047001.4,N
1502769035.3,286047004.4,N
1502769055.2,286047001.4,N
1502769075.0,286047005.4,N
1502769075.9,286047005.4,N
1502769095.7,286047002.1,N
1502769115.6,286047000.6,N
1502769135.4,286047002.5,N
1502769155.2,286047004.2,N
1502769175.1,286047009.2,Y
1502769176.0,286047009.2,Y
1502769195.8,286047001.6,N
1502769215.6,286046998.6,N
1502769235.5,286046996.8,N
1502769255.3,286046997.5,N
1502769275.1,286046996.6,N
1502769295.9,286047000.2,N
1502769315.7,286047001.2,N
1502769335.5,286046999.9,N
1502769355.4,286047001.6,N
1502769375.2,286047001.1,N
1502769395.0,286046999.0,N
1502769395.9,286046999.0,N
1502769415.8,286046999.0,N
1502769435.6,286047001.8,N
1502769455.4,286047004.3,N
1502769475.2,286047004.3,N
1502769495.1,286047004.4,N
1502769496.0,286047004.4,N
1502769515.8,286047003.8,N
1502769535.6,286047003.7,N
1502769555.5,286047003.9,N
1502769575.3,286047003.9,N
1502769595.1,286047004.3,N
